Regional Weather Roundup
Issued by NWS

Home | Current Version | Previous Version | Text Only | Print | Product List | Glossary Off
Versions: 1 2 3 4 5 6 7 8 9 10 11 12 13 14 15 16 17 18 19 20 21 22 23 24 25 26 27 28 29 30 31 32 33 34 35 36 37 38 39 40 41 42 43 44 45 46 47 48 49 50

000
ASUS43 KMKX 210110
RWRWI

WISCONSIN REGIONAL WEATHER ROUNDUP
NATIONAL WEATHER SERVICE MILWAUKEE/SULLIVAN WI
700 PM CST SAT JAN 20 2018

NOTE: "FAIR" INDICATES FEW OR NO CLOUDS BELOW 12,000 FEET WITH NO
SIGNIFICANT WEATHER AND/OR OBSTRUCTIONS TO VISIBILITY.

WIZ001-002-006>008-014>016-023>028-210200-
NORTHWEST WISCONSIN

CITY           SKY/WX    TMP DP  RH WIND       PRES   REMARKS
SUPERIOR ARPT  FAIR      33  28  79 SW5       29.88S WCI  29
ASHLAND        FAIR      31  27  85 S3        29.89S
HAYWARD        FAIR      28  25  88 CALM      29.89S
SIREN          FAIR      29  27  94 CALM      29.90S
CUMBERLAND     FAIR      32  30  93 S5        29.89F WCI  27
RICE LAKE      FAIR      33  31  92 CALM      29.91F
CHETEK         FAIR      30  30 100 CALM      29.91F
LADYSMITH      FAIR      36  31  83 S3        29.92S
EAU CLAIRE     FAIR      31  29  92 CALM      29.91F
MENOMONIE      FAIR      33  30  90 CALM      29.92S
NEW RICHMOND   FAIR      34  30  85 S5        29.92S WCI  30
OSCEOLA        FAIR      33  31  92 CALM      29.94S
$$

WIZ003>005-009-010-017-018-210200-
NORTH CENTRAL WISCONSIN

CITY           SKY/WX    TMP DP  RH WIND       PRES   REMARKS
MANITOWISH WTR FAIR      31  31 100 CALM      29.89R
ARBOR VITAE    FAIR      32  30  94 S5        29.89R WCI  27
WOODRUFF       FAIR      32  30  94 S5        29.89R WCI  27
RHINELANDER    FAIR      33  30  88 SW5       29.90S WCI  29
EAGLE RIVER    CLOUDY    28  28 100 CALM      29.88S FOG
LAND O LAKES   FOG       28  28  99 CALM      29.90R VSB<1/4
PHILLIPS       MOCLDY    34  31  90 S3        29.89S
TOMAHAWK       MOCLDY    31  28  90 CALM      29.91S
MEDFORD        FAIR      32  29  88 S3        29.90F
MERRILL        MOCLDY    33  31  93 CALM      29.93R
$$

WIZ029-030-035-036-043>047-210200-
CENTRAL WISCONSIN

CITY           SKY/WX    TMP DP  RH WIND       PRES   REMARKS
WAUSAU         FAIR      33  29  85 CALM      29.91R
MOSINEE        MOCLDY    34  30  86 CALM      29.93R
MARSHFIELD     FAIR      33  29  85 CALM      29.91S
STEVENS POINT  FAIR      29  28  96 CALM      29.94F
WAUPACA        FAIR      35  30  82 CALM      29.96R
WAUTOMA        FAIR      28  26  92 CALM      29.94
WISC RAPIDS    FAIR      32  28  85 CALM      29.94R
CAMP DOUGLAS   MOCLDY    30  28  93 CALM      29.92S
$$

WIZ011>013-019>022-031-037>040-048>050-210200-
NORTHEAST WISCONSIN

CITY           SKY/WX    TMP DP  RH WIND       PRES   REMARKS
ANTIGO         FAIR      31  29  94 CALM      29.93R
SHAWANO        MOCLDY    37  30  75 CALM      29.94R
OCONTO         FAIR      35  29  81 CALM      29.95R
STURGEON BAY   FAIR      36  29  75 S6        29.95R WCI  31
GREEN BAY      FAIR      34  29  82 SW3       29.95R
MANITOWOC      FAIR      34  30  85 CALM      29.96S
APPLETON       MOCLDY    34  27  75 CALM      29.93R
CLINTONVILLE   FAIR      32  28  86 CALM      29.94R
OSHKOSH        FAIR      31  28  89 CALM      29.94R
$$

WIZ032>034-041-042-053>061-210200-
SOUTHWEST WISCONSIN

CITY           SKY/WX    TMP DP  RH WIND       PRES   REMARKS
LA CROSSE      FAIR      32  29  88 CALM      29.93S
SPARTA         FAIR      31  29  92 CALM      29.93F
VIROQUA        FAIR      37  32  82 E5        29.91S WCI  33
BOSCOBEL       FAIR      32  28  85 CALM      29.93S FOG
PRAIRIE DU CHI FAIR      33  29  85 SE3       29.92S
PLATTEVILLE    FAIR      37  33  84 SE5       29.93S WCI  34
$$

WIZ056-057-062-063-064-067-068-210200-
SOUTH CENTRAL WISCONSIN

CITY           SKY/WX    TMP DP  RH WIND       PRES   REMARKS
REEDSBURG      FAIR      35  31  83 CALM      29.92S
BARABOO/DELLS  FAIR      36  30  80 CALM      29.92S
LONE ROCK      FAIR      32  30  92 NE3       29.93S
MINERAL POINT  FAIR      39  36  87 SE3       29.92F
MADISON        FAIR      38  31  76 SW3       29.96R
MIDDLETON      FAIR      38  32  79 S5        29.94S WCI  34
WATERTOWN      FAIR      32  32  98 CALM      29.94S
MONROE         FAIR      36  32  87 S5        29.93F WCI  32
JANESVILLE     PTCLDY    36  32  87 CALM      29.95R
$$

WIZ051-052-058>065-066-070>072-210200-
SOUTHEAST WISCONSIN

CITY           SKY/WX    TMP DP  RH WIND       PRES   REMARKS
MILWAUKEE      FAIR      39  32  76 SW5       29.96R
WAUKESHA       CLEAR     37  30  75 SW5       29.96R WCI  34
MILWAUKEE/TIMM CLEAR     34  27  75 CALM      29.97R
RACINE         FAIR      37  31  78 SW5       29.98R WCI  33
BURLINGTON     FAIR      32  29  87 S5        29.97R WCI  27
KENOSHA        FAIR      36  29  75 SW6       29.96R WCI  31
FOND DU LAC    FAIR      34  28  79 CALM      29.94S
SHEBOYGAN      FAIR      32  30  92 S3        29.95R
WEST BEND      FAIR      34  30  86 CALM      29.95S
JUNEAU         FAIR      37  31  79 CALM      29.95S
$$

LSZ147-162-210200-
LAKE SUPERIOR

STATION/POSITION TIME  TEMP    WIND        PRES    WAVE
                       AIR SEA DIR/SP/G            HT/PER
                 (UTC) (F)     (DEG/KT/KT) (MB)    (FT/S)
DEVILS ISLAND    0000   38     220/  8/  9 1012.0R
SAXON HARBOR     0030   33     190/  3/  4 1011.5S
$$

LMZ867-665-643>646-210200-
LAKE MICHIGAN

STATION/POSITION TIME  TEMP    WIND        PRES    WAVE
                       AIR SEA DIR/SP/G            HT/PER
                 (UTC) (F)     (DEG/KT/KT) (MB)    (FT/S)
NORTHPORT PIER   0040   35      CALM  /  4 1013.5S
KEWAUNEE LAKESHO 0048   35     220/  1/  2 1013.3R
SHEBOYGAN LAKESH 0100   38     210/  6/  6 1014.8R
PORT WASHINGTON  0030   35        CALM     1015.6R
MILWAUKEE LAKESH 0050   34        CALM       N/A
KENOSHA   LAKESH 0000   41     200/  8/  9 1014.2
$$

TC  - TEMPERATURE IN CELSIUS
VSB - VISIBILITY IN STATUTE MILES
WCI - WIND CHILL INDEX
HX  - HEAT INDEX





USA.gov is the U.S. government's official web portal to all federal, state and local government web resources and services.